Regional Weather Roundup
Issued by NWS

Home | Current Version | Previous Version | Graphics & Text | Print | Product List | Glossary On
Versions: 1 2 3 4 5 6 7 8 9 10 11 12 13 14 15 16 17 18 19 20 21 22 23 24 25 26 27 28 29 30 31 32 33 34 35 36 37 38 39 40 41 42 43 44 45 46 47 48 49 50
000
ASUS45 KCYS 250410
RWRWY

WYOMING REGIONAL WEATHER ROUNDUP
NATIONAL WEATHER SERVICE CHEYENNE WY
900 PM MST MON NOV 24 2014

NOTE:  "FAIR" INDICATES FEW OR NO CLOUDS BELOW 12,000 FEET
WITH NO SIGNIFICANT WEATHER AND/OR OBSTRUCTIONS TO VISIBILITY.

WYZ001-250500-
YELLOWSTONE NATIONAL PARK

CITY           SKY/WX    TMP DP  RH WIND       PRES   REMARKS
LK YELLOWSTONE   N/A     19  15  84 VRB6      30.21F WCI  11
W YELLOWSTONE  NOT AVBL

$$
WYZ002>013-054>058-071-098>099-250500-
NORTHERN WYOMING

CITY           SKY/WX    TMP DP  RH WIND       PRES   REMARKS
JACKSON        CLOUDY    27  19  74 S6        30.27F WCI  20
CODY           CLOUDY    36  12  38 SW21G33   30.08F WCI  24
GREYBULL       MOCLDY    21  16  81 E8        30.15F WCI  11
WORLAND        PTCLDY    21  14  74 E7        30.14F WCI  12
SHERIDAN       MOCLDY    25  13  60 SW7       30.07F WCI  17
BUFFALO        PTCLDY    30  11  45 VRB7      30.09F WCI  23
GILLETTE       PTCLDY    27  23  85 W13       30.07F WCI  16
HULETT           N/A     30  23  74 MISG        N/A
NEWCASTLE      FAIR      27  21  80 N9        30.11S WCI  17

$$
WYZ014>020-022>026-101>103-250500-
CENTRAL WYOMING

CITY           SKY/WX    TMP DP  RH WIND       PRES   REMARKS
BIG PINEY      PTCLDY    19   6  57 SW3       30.28S
PINEDALE       MOCLDY    14   9  79 W9        30.27R WCI   2
DUBOIS         FAIR      19   9  63 NE8       30.17F WCI   9
LANDER         PTCLDY    24   5  44 CALM      30.14F
RIVERTON       PTCLDY    28  12  51 NW22      30.13F WCI  14
CASPER         CLEAR     20  13  74 W5        30.15F WCI  13
DOUGLAS        CLEAR    N/A N/A N/A N7        30.15F

$$
WYZ021-027>030-104>119-250500-
SOUTHERN WYOMING

CITY           SKY/WX    TMP DP  RH WIND       PRES   REMARKS
EVANSTON       PTCLDY    14  11  87 SW12      30.36S WCI   0
FORT BRIDGER   MOCLDY    22  16  78 W18G25    30.36S WCI   7
ROCK SPRINGS   PTCLDY    21  11  65 W24       30.28S WCI   4
DIXON          FAIR       4   0  83 CALM      30.31R
RAWLINS        CLEAR     17   9  70 SW15      30.19S WCI   2
SARATOGA       FAIR      16  10  79 W6        30.20S WCI   7
LARAMIE        MOCLDY    14   7  73 W9        30.13F WCI   2
CHEYENNE       CLEAR     21  10  62 NW13      30.15F WCI   9
TORRINGTON     CLEAR     23  17  78 W5        30.16R WCI  17
PINE BLUFFS    FAIR      25  19  80 NW13      30.16S WCI  13

$$



USA.gov is the U.S. government's official web portal to all federal, state and local government web resources and services.